Zurück zum Katalog

COSMOS 2565

AktivNavigationLEO
NORAD 54381·PAYLOAD·🇷🇺 Russia

Gestartet Nov 30, 2022 von Plesetsk Cosmodrome

Loading…

Nächste Überflüge (nächste 24 Stunden)

TLE

AktuellSource: Space-Track

Epoche: Sep 14, 2026, 14:12 UTC

1 54381U 22163A   26257.59230896 -.00000061  00000-0  10454-4 0  9995
2 54381  67.1470 249.9592 0006718 266.7529  93.2787 13.96674964193258

Verfolge COSMOS 2565 in Echtzeit mit AllMySat

Download on the App Store